Location: Greenhawk Observatory
(37.3417°N, 122.0298°W)
Time: 01:49:40
(UTC-08:00)

Daily predictions for brighter satellites

Satellite Brightness Start Highest point End
(mag) Time Altitude Azimuth Time Altitude Azimuth Time Altitude Azimuth
Thor Agena Rocket 4.3 04:31:23 10° SSE 04:34:45 43° SSE 04:34:45 43° SSE
Cosmos 2056 Rocket 4.3 04:40:01 37° NNE 04:41:23 46° ENE 04:46:15 10° SE
Cosmos 1238 Rocket 3.6 04:43:22 79° S 04:43:22 79° S 04:49:06 10° S
COSMO-SKYMED 1 4.5 04:42:05 10° SE 04:45:46 28° ENE 04:48:38 14° NNE
SL-16 R/B 4.5 04:50:56 11° N 04:50:56 11° N 04:51:12 10° N
Cosmos 44 Rocket 3.4 04:52:42 75° S 04:53:06 83° ESE 04:58:16 10° NNE
Cosmos 1624 Rocket 4.2 04:53:13 45° N 04:54:47 69° ENE 05:00:05 10° SSE
Cosmos 1371 Rocket 3.9 04:59:27 68° NNW 05:00:09 85° WSW 05:05:23 10° SSE
Cosmos 1300 Rocket 3.7 04:57:20 10° S 05:01:44 73° E 05:06:08 10° NNE
USA 215 3.2 04:55:58 10° NE 05:02:31 82° SE 05:07:35 18° SW
Lacrosse 5 1.8 05:03:19 65° NNW 05:03:19 65° NNW 05:08:08 10° NE
Cosmos 192 4.2 05:00:15 16° SSW 05:04:13 90° SE 05:09:09 10° NNE
USA 32 3.9 05:05:03 65° WNW 05:05:27 68° W 05:10:39 10° S
SL-08 ROCKET BODY 4.4 05:05:29 10° SSW 05:11:17 52° W 05:17:02 10° N
CENTAUR R/B 4.2 05:15:44 17° NNW 05:15:44 17° NNW 05:19:02 10° N
Meteor 1-11 Rocket 3.9 05:09:59 10° S 05:15:49 75° E 05:21:34 10° NNE
Cosmos 1346 Rocket 3.5 05:17:06 38° SSW 05:17:06 38° SSW 05:19:43 10° S
Tiangong 2 2.8 05:17:36 27° NE 05:17:36 27° NE 05:19:40 10° ENE
Nadezhda 3 Rocket 4.2 05:16:46 10° N 05:23:10 78° E 05:29:31 10° S
Meteor 1-13 Rocket 4.2 05:22:35 10° N 05:28:34 82° W 05:34:29 10° S
Cosmos 1452 Rocket 4.2 05:25:25 10° N 05:30:36 54° ENE 05:35:45 10° SSE
SKYMED 2 3.4 05:29:21 10° S 05:33:40 82° WSW 05:37:15 15° NNW
Cosmos 962 Rocket 4.5 05:29:45 10° S 05:35:55 86° E 05:42:12 10° N
CRYOSAT 2 4.4 05:32:05 10° S 05:36:51 54° W 05:41:40 10° NNW
Meteor 2-13 Rocket 4.3 05:30:54 10° SSW 05:37:03 73° W 05:43:14 10° N
GPS 2-05 Rocket1 4.2 05:39:34 25° SW 05:40:17 27° SSW 05:43:20 10° SE
Meteor 2-4 Rocket 3.9 05:35:41 10° N 05:41:14 75° E 05:46:56 10° SSE
Cosmos 2369 Rocket 2.2 05:38:10 12° NNW 05:43:34 86° ENE 05:49:15 10° SSE
Cosmos 1603 4.5 05:43:06 27° W 05:44:14 29° WNW 05:49:08 10° N
Cosmos 44 3.5 05:41:57 10° SW 05:47:15 58° WNW 05:52:24 10° NNE
Cosmos 2341 Rocket 3.9 05:41:14 10° S 05:47:31 77° W 05:53:48 10° N
Meteor 1-5 Rocket 4.5 05:43:08 10° S 05:48:26 66° E 05:53:41 10° NNE
NOAA 6 4.4 05:46:30 10° N 05:51:13 38° WNW 05:55:55 10° SW
Cosmos 1536 2.8 05:47:25 10° SSW 05:51:20 56° W 05:55:17 10° N
CZ-4 R/B 2.6 05:52:47 10° NNE 05:56:33 42° E 06:00:14 10° S
Cosmos 1025 Rocket 2.9 05:53:37 10° N 05:58:00 79° W 06:02:20 10° S
Cosmos 1633 3.5 05:55:17 10° SW 05:58:23 26° WNW 06:01:30 10° NNW
Abrixas rocket 3.7 06:01:33 20° NW 06:02:12 21° NNW 06:04:51 10° NNE
PAYLOAD A 4.5 05:58:58 10° NNE 06:04:22 71° ESE 06:09:47 10° S
YAOGAN 1 4.2 06:01:11 10° NNE 06:05:14 38° E 06:09:15 10° SSE
Cosmos 1943 3.5 06:01:42 10° SW 06:06:58 41° WNW 06:12:18 10° N
Cosmos 1269 Rocket 4.1 06:03:05 10° SSW 06:08:22 87° ESE 06:13:42 10° NNE
SL-24 R/B 4.5 06:05:05 10° N 06:10:12 53° WNW 06:14:35 10° SSW
Okean 1 Rocket 4.3 06:12:23 10° WSW 06:15:40 20° WNW 06:18:57 10° NNW
USA 229 DEB 3.7 06:09:42 10° SW 06:16:29 63° NW 06:23:24 10° NNE
USA 229 3.7 06:09:48 10° SW 06:16:35 64° NW 06:23:30 10° NNE
Cosmos 1544 Rocket 3.5 06:13:20 10° S 06:17:40 80° W 06:22:05 10° N
Meteor 2-19 Rocket 4.4 06:13:21 10° S 06:19:28 82° W 06:25:36 10° N
Lacrosse 4 Rocket 2.6 06:17:14 10° NNW 06:21:09 40° ENE 06:24:59 10° SE
Cosmos 1943 Rocket 2.3 06:15:50 10° NNW 06:21:22 81° ENE 06:26:52 10° SSE
COSMO-SKYMED 1 3.8 06:18:28 10° SSW 06:21:52 22° W 06:25:17 10° NW
IRS-1A Rocket 4.3 06:16:28 10° N 06:22:12 75° WNW 06:28:00 10° SSW
Cosmos 1420 Rocket 4.0 06:18:29 10° NNW 06:23:45 84° WSW 06:28:56 10° SSE
Meteor 2-8 Rocket 4.5 06:19:09 10° NNW 06:25:17 70° W 06:31:23 10° S
ATLAS CENTAUR Rocket 3.7 06:21:57 10° W 06:28:00 26° SSW 06:31:21 10° SE
Meteor 1-29 4.0 06:27:50 10° SSE 06:31:04 47° ENE 06:34:20 10° N
Ariane Rocket 3.8 06:29:18 10° N 06:33:35 28° WNW 06:37:51 10° SW
Cosmos 1500 3.9 06:30:11 10° S 06:33:51 58° E 06:37:34 10° NNE
CZ-2C R/B 2.5 06:30:04 10° NNE 06:35:15 86° W 06:40:16 10° SSW
Cosmos 1048 Rocket 4.0 06:30:42 10° SSW 06:35:44 57° WNW 06:40:51 10° N
Cosmos 1975 3.0 06:32:37 10° S 06:36:42 84° E 06:40:50 10° N
ASTRO E2 4.1 06:33:16 10° WSW 06:36:57 34° S 06:40:37 10° ESE
SPOT 3 Rocket 3.6 06:32:41 10° NNE 06:37:52 89° ESE 06:43:01 10° SSW
CZ-3 R/B 2.5 06:33:09 10° WSW 06:40:09 27° S 06:43:06 10° SE
AQUARIUS 4.1 06:35:53 10° N 06:40:24 75° WNW 06:44:52 10° SSW
SL-8 Rocket 4.3 06:36:17 10° SSW 06:42:15 46° W 06:48:13 10° N
Cosmos 1656 Rocket 4.4 06:38:08 10° NNW 06:43:43 56° ENE 06:49:17 10° SE
Helios 1B rocket 2.4 06:40:07 10° S 06:44:15 80° WSW 06:48:25 10° NNW
Cosmos 1892 Rocket 4.1 06:40:16 10° NNW 06:44:28 41° W 06:48:40 10° SSW
USA 215 4.0 06:39:27 10° NNE 06:45:03 32° NNW 06:50:40 10° W
